Location: Il Ritiro
(43.4167°N, 13.1333°E)
Time: 01:14:27
(UTC+00:00)

Cosmos 1455 - Pass Details

Date: 05 July 2020
Orbit: 500 x 521 km, 82.5° (Epoch: 11 August)

Event Time Altitude Azimuth Distance (km) Brightness Sun altitude
Rises 20:07:04 0° 349° (N) 2,644 6.9 -11.4°
Reaches altitude 10° 20:09:13 10° 347° (NNW) 1,755 5.9 -11.7°
Maximum altitude 20:13:03 69° 264° (W) 561 2.5 -12.2°
Enters shadow 20:16:35 12° 182° (S) 1,637 4.3 -12.6°
